Location: Ahausen
(50.4985°N, 8.2722°E)
Time: 05:45:29
(UTC+00:00)

YUBILEINY - Pass Details

Date: 04 July 2022
Orbit: 1478 x 1509 km, 82.5° (Epoch: 17 August)

Event Time Altitude Azimuth Distance (km) Brightness Sun altitude
Rises 01:24:06 0° 349° (N) 4,656 ? -12.5°
Reaches altitude 10° 01:27:46 10° 2° (N) 3,668 ? -12.2°
Maximum altitude 01:34:48 26° 56° (NE) 2,641 ? -11.7°
Drops below altitude 10° 01:41:45 10° 109° (ESE) 3,636 ? -11.2°
Sets 01:45:20 0° 122° (ESE) 4,607 ? -10.9°
